Regional Weather Roundup
Issued by NWS Binghamton, NY

Home | Current Version | Previous Version | Text Only | Print | Product List | Glossary On
Versions: 1 2 3 4 5 6 7 8 9 10 11 12 13 14 15 16 17 18 19 20 21 22 23 24 25
000
ASUS41 KBGM 240610
RWRBGM

REGIONAL WEATHER ROUNDUP
NATIONAL WEATHER SERVICE BINGHAMTON NY
200 AM EDT FRI MAR 24 2017

Note: "fair" indicates few or no clouds below 12,000 feet with no
significant weather and/or obstructions to visibility.

* = Station(s) that does not report precipitation, such as rain,
snow, etc, also no thunder or fog.

NYZ009-015>018-022>025-036-037-044>046-055>057-062-240700
...Central New York...

CITY           SKY/WX    TMP DP  RH WIND       PRES   REMARKS
Binghamton     CLOUDY    29   7  39 S9        30.35S WCI  20
Cortland       CLOUDY    32  12  43 S7        30.35F WCI  26
Dansville      CLOUDY    38  10  31 SE10      30.27F WCI  31
Elmira         CLOUDY    34  12  40 SE5       30.34F WCI  30
Seneca Falls   CLOUDY    36  18  48 S17       30.31F WCI  25
Ithaca         CLOUDY    32  12  43 SE15      30.33F WCI  22
Hamilton       CLOUDY    28   7  40 S10       30.36F WCI  19
Monticello     CLOUDY    21   9  58 CALM      30.45R
Norwich        CLOUDY    25  14  63 S5        30.40F WCI  19
Penn Yan       CLOUDY    35  15  44 S8G17     30.29F WCI  29
Rome           CLOUDY    28  12  51 E6        30.42S WCI  22
Sidney         CLOUDY    21  14  73 CALM      30.41S
Syracuse       CLOUDY    31  12  45 E9        30.34F WCI  23
$$

PAZ038>040-043-044-047-048-072-240700
...Northeast Pennsylvania...

CITY           SKY/WX    TMP DP  RH WIND       PRES   REMARKS
Hazleton       CLEAR     30  10  43 SE7       30.44S WCI  23
Scranton       CLEAR     31  12  45 CALM      30.44R
$$
&&
KEY
WCI = Wind Chill Index
VSB = Visibility
HX  = Heat Index
$$




USA.gov is the U.S. government's official web portal to all federal, state and local government web resources and services.